Location: Sternwarte_Laufen
(47.9344°N, 12.9346°E)
Time: 08:19:10
(UTC+02:00)

ISS - Pass Details

Date: 17 May 2018
Orbit: 402 x 407 km, 51.6° (Epoch: 26 May)

Event Time Altitude Azimuth Distance (km) Brightness Sun altitude
Exits shadow 02:38:57 21° 293° (WNW) 982 -1.9 -19.5°
Maximum altitude 02:40:48 42° 355° (N) 587 -2.6 -19.4°
Drops below altitude 10° 02:43:56 10° 68° (ENE) 1,459 -0.4 -19.2°
Sets 02:46:05 0° 76° (ENE) 2,319 0.6 -19.0°
